Flag for France Weather past 2 weeks in Marigot, Saint Martin, France

Now
86 °F

Passing clouds.


Feels Like: 93 °F
Forecast: 82 / 88 °F
Wind: 12 mph from Southeast

Location: Juliana Airport - Saint Maarten

Current Time: Oct 1, 2014 at 1:34:44 PM

Latest Report: Oct 1, 2014 at 1:00 PM


Visibility: N/A

Pressure: 30.01 "Hg

Humidity: 66%

Dew point: 73 °F

Location of MarigotLocation

Historic Weather in Marigot — Graph

°F

Marigot temperature yesterday

Maximum temperature yesterday: 88 °F (at 11:00 AM)
Minimum temperature yesterday: 82 °F (at 12:00 AM)
Average temperature yesterday: 85 °F

Past Weeks' High & Low Weather Summary

 TemperatureHumidityPressure
High90 °F (Sep 17, 12:00 PM)89% (Sep 27, 5:00 AM)30.04 "Hg (Sep 27, 5:00 AM)
Low79 °F (Sep 24, 10:00 AM)52% (Sep 17, 1:00 PM)29.83 "Hg (Sep 26, 4:00 AM)
Average84 °F74%29.95 "Hg
* Reported Sep 16 12:00 Noon — Oct 1 12:00 Noon, Marigot, Weather by CustomWeather, © 2014

Note: Actual official high and low records may vary slightly from our data, if they occured in-between our weather recording intervals... More about our weather records

Advertising

Marigot weather history for previous 24 hours

 ConditionsComfort  
Time TempWeatherWind HumidityBarometerVisibility
12:00 PM
Oct 1
88 °FPassing clouds.10 mph62%30.01 "HgN/A
11:00 AM88 °FPassing clouds.9 mph66%30.04 "HgN/A
10:00 AM86 °FWarm.No wind70%30.04 "HgN/A
9:00 AM84 °FPassing clouds.8 mph74%30.04 "HgN/A
8:00 AM86 °FPassing clouds.8 mph70%30.04 "HgN/A
7:00 AM82 °FPassing clouds.7 mph79%30.01 "HgN/A
6:00 AM82 °FPassing clouds.6 mph74%30.01 "HgN/A
5:00 AM82 °FPassing clouds.7 mph79%29.98 "HgN/A
3:00 AM82 °FPassing clouds.9 mph74%29.98 "HgN/A
2:00 AM82 °FPassing clouds.9 mph79%29.98 "HgN/A
1:00 AM82 °FPassing clouds.8 mph79%29.98 "HgN/A
12:00 AM84 °FPassing clouds.9 mph74%30.01 "HgN/A
11:00 PM
Sep 30
84 °FPassing clouds.9 mph79%30.01 "HgN/A
10:00 PM84 °FPassing clouds.7 mph79%30.01 "HgN/A
9:00 PM84 °FPassing clouds.7 mph74%30.01 "HgN/A
8:00 PM84 °FPassing clouds.7 mph74%30.01 "HgN/A
7:00 PM84 °FPassing clouds.7 mph74%29.98 "HgN/A
6:00 PM84 °FPassing clouds.7 mph74%29.98 "HgN/A
5:00 PM86 °FPassing clouds.7 mph70%29.98 "HgN/A
4:00 PM86 °FPassing clouds.8 mph70%29.95 "HgN/A
3:00 PM88 °FPassing clouds.10 mph66%29.95 "HgN/A
2:00 PMN/A12 mphN/AN/AN/A
1:00 PM86 °FPassing clouds.10 mph70%29.98 "HgN/A
Weather by CustomWeather, © 2014

See weather overviewHow to use our weather pages